This demonstration page uses our WeatherBlox Daily Observations layout. Learn more.

Left ArrowRight Arrow

Hourly Observations for August 18, 2021

Temp ( °F °C ) Dew Point ( °F °C ) Humidity (%) Winds ( mph kmh ) Pressure ( in mb ) Visibility ( mi km ) Precip ( " mm )
12:59 am 00:59 Cloudy 80 26.7 75 23.9 85 85 Calm 30.16 1022 10 16 0.00 0.00
1:59 am 01:59 Mostly Cloudy 80 26.7 75 23.9 85 85 Calm 30.16 1021 10 16 0.00 0.00
2:59 am 02:59 Cloudy 80 26.7 75 23.9 85 85 SE 5 7 30.15 1021 10 16 0.00 0.00
3:59 am 03:59 Cloudy 80 26.7 74 23.3 82 82 SSE 3 6 30.15 1021 10 16 0.00 0.00
4:59 am 04:59 Cloudy 80 26.7 74 23.3 82 82 SE 5 7 30.15 1021 10 16 0.00 0.00
5:59 am 05:59 Partly Cloudy 79 26.1 74 23.3 85 85 SSE 5 7 30.16 1021 10 16 0.00 0.00
6:59 am 06:59 Mostly Cloudy 79 26.1 74 23.3 85 85 SE 5 7 30.16 1021 9 14 0.00 0.00
7:59 am 07:59 Mostly Cloudy 82 27.8 75 23.9 79 79 S 9 15 30.16 1021 10 16 0.00 0.00
8:59 am 08:59 Mostly Cloudy 84 28.9 74 23.3 72 72 S 7 11 30.16 1021 10 16 0.00 0.00
9:59 am 09:59 Mostly Cloudy 86 30 74 23.3 67 67 S 12 19 30.17 1022 10 16 0.00 0.00
10:59 am 10:59 Mostly Cloudy with Light Rain 85 29.4 74 23.3 70 70 SSW 8 13 30.17 1022 5 8 0.00 0.00
11:37 am 11:37 Mostly Cloudy with Rain 83 28.3 74 23.3 74 74 S 12 19 30.17 1022 2 3 0.04 1.02
11:47 am 11:47 Mostly Cloudy with Light Rain 82 27.8 75 23.9 79 79 S 8 13 30.16 1021 6 10 0.07 1.78
11:59 am 11:59 Mostly Cloudy with Haze 84 28.9 77 25 80 80 SSE 6 9 30.15 1021 6 10 0.07 1.78
12:59 pm 12:59 Mostly Cloudy 88 31.1 75 23.9 66 66 S 16 26 30.13 1020 10 16 0.00 0.00
1:59 pm 13:59 Mostly Cloudy 88 31.1 74 23.3 63 63 S 10 17 30.12 1020 10 16 0.00 0.00
2:59 pm 14:59 Mostly Cloudy 90 32.2 74 23.3 59 59 S 15 24 30.11 1020 10 16 0.00 0.00
3:59 pm 15:59 Partly Cloudy 87 30.6 75 23.9 67 67 S 10 17 30.10 1019 10 16 0.00 0.00
4:59 pm 16:59 Mostly Cloudy 85 29.4 75 23.9 72 72 S 10 17 30.10 1019 10 16 0.00 0.00
5:59 pm 17:59 Mostly Cloudy 84 28.9 74 23.3 72 72 SSW 14 22 30.09 1019 10 16 0.00 0.00
6:59 pm 18:59 Mostly Cloudy 84 28.9 74 23.3 72 72 S 13 20 30.08 1019 10 16 0.00 0.00
7:59 pm 19:59 Mostly Cloudy 83 28.3 75 23.9 77 77 S 12 19 30.09 1019 10 16 0.00 0.00
8:59 pm 20:59 Partly Cloudy 82 27.8 76 24.4 82 82 S 8 13 30.10 1019 10 16 0.00 0.00
9:59 pm 21:59 Partly Cloudy 82 27.8 75 23.9 79 79 S 10 17 30.11 1020 10 16 0.00 0.00
10:59 pm 22:59 Partly Cloudy 81 27.2 75 23.9 82 82 SSW 7 11 30.11 1020 10 16 0.00 0.00
11:59 pm 23:59 Partly Cloudy 80 26.7 75 23.9 85 85 SSW 8 13 30.10 1019 10 16 0.00 0.00

Powered by AerisWeather